This demonstration page uses our WeatherBlox Daily Observations layout. Learn more.

40.92945, -100.16068

Hourly Observations for July 25, 2015

Temp ( °F °C ) Dew Point ( °F °C ) Humidity (%) Winds ( mph kmh ) Pressure ( in mb ) Visibility ( mi km ) Precip ( " mm )
12:15 am 00:15 Clear 71 21.6 67 19.4 87 87 SE 5 7 29.91 1013 10 16.0934 N/A
12:35 am 00:35 Clear 72 22.1 67 19.6 86 86 ESE 8 13 29.91 1013 10 16.0934 N/A
12:55 am 00:55 Clear 72 22.2 67 19.7 86 86 SE 8 13 29.91 1013 10 16.0934 0 0
1:15 am 01:15 Clear 72 22.1 68 20 88 88 SE 13 20 29.88 1012 10 16.0934 N/A
1:35 am 01:35 Clear 72 22.1 68 20 88 88 SE 6 9 29.91 1013 10 16.0934 N/A
1:55 am 01:55 Clear 71 21.5 67 19.7 90 90 E 9 15 29.91 1013 10 16.0934 N/A
2:15 am 02:15 Clear 70 21.2 67 19.7 91 91 E 12 19 29.91 1013 10 16.0934 N/A
2:35 am 02:35 Clear 70 21.2 68 19.8 92 92 E 9 15 29.91 1013 10 16.0934 N/A
2:55 am 02:55 Clear 70 21.2 68 19.8 92 92 E 8 13 29.91 1013 10 16.0934 N/A
3:15 am 03:15 Clear 70 21.2 68 19.8 92 92 E 5 7 29.91 1013 10 16.0934 N/A
3:35 am 03:35 Clear 70 21 67 19.6 92 92 E 6 9 29.88 1012 10 16.0934 N/A
3:55 am 03:55 Clear 70 21 67 19.6 92 92 E 3 6 29.88 1012 10 16.0934 N/A
4:15 am 04:15 Clear 70 21 67 19.5 91 91 E 5 7 29.88 1012 10 16.0934 N/A
4:35 am 04:35 Clear 70 21 67 19.5 91 91 ENE 3 6 29.88 1012 10 16.0934 N/A
4:55 am 04:55 Clear 69 20.7 67 19.5 93 93 Calm 29.88 1012 10 16.0934 N/A
5:15 am 05:15 Partly Cloudy 69 20.8 67 19.5 92 92 Calm 29.88 1012 10 16.0934 N/A
5:35 am 05:35 Partly Cloudy 69 20.8 67 19.6 93 93 Calm 29.88 1012 10 16.0934 N/A
5:55 am 05:55 Clear with Light Rain 69 20.7 67 19.5 93 93 Calm 29.88 1012 10 16.0934 N/A
6:15 am 06:15 Clear with Light Drizzle 69 20.8 67 19.7 93 93 SSE 5 7 29.88 1012 10 16.0934 N/A
6:35 am 06:35 Sunny 70 21 67 19.3 90 90 SE 5 7 29.88 1012 10 16.0934 N/A
6:55 am 06:55 Sunny 70 21 66 19.1 89 89 Calm 29.88 1012 10 16.0934 0 0
7:15 am 07:15 Sunny 70 21 67 19.2 90 90 Calm 29.88 1012 10 16.0934 N/A
7:35 am 07:35 Sunny 70 21 67 19.5 91 91 Calm 29.88 1012 10 16.0934 N/A
7:55 am 07:55 Partly Cloudy 70 21.3 67 19.5 90 90 E 3 6 29.88 1012 10 16.0934 N/A
8:15 am 08:15 Partly Cloudy 71 21.4 67 19.4 88 88 ESE 6 9 29.88 1012 10 16.0934 N/A
8:35 am 08:35 Mostly Cloudy 72 22 67 19.5 86 86 SE 9 15 29.91 1013 10 16.0934 0.01 0.254
8:55 am 08:55 Partly Cloudy 74 23.1 68 20 83 83 SSE 10 17 29.88 1012 10 16.0934 0.01 0.254
9:15 am 09:15 Sunny 76 24.2 69 20.6 80 80 SSE 10 17 29.88 1012 10 16.0934 N/A
9:35 am 09:35 Partly Cloudy 77 25 69 20.7 77 77 S 7 11 29.88 1012 10 16.0934 N/A
9:55 am 09:55 Sunny 77 24.8 69 20.5 77 77 S 8 13 29.88 1012 10 16.0934 0 0
10:15 am 10:15 Sunny 78 25.6 69 20.4 73 73 SE 6 9 29.88 1012 10 16.0934 N/A
10:35 am 10:35 Sunny 79 25.9 69 20.8 74 74 SSE 9 15 29.88 1012 10 16.0934 N/A
10:55 am 10:55 Sunny 79 26.3 69 20.6 71 71 S 8 13 29.88 1012 10 16.0934 N/A
11:15 am 11:15 Sunny 79 26.2 70 20.9 73 73 SE 8 13 29.88 1012 10 16.0934 N/A
11:35 am 11:35 Sunny 80 26.7 69 20.4 68 68 S 9 15 29.85 1011 10 16.0934 N/A
11:55 am 11:55 Sunny 82 28 69 20.4 63 63 S 9 15 29.85 1011 10 16.0934 N/A
12:15 pm 12:15 Sunny 82 27.6 68 20 63 63 SSE 10 17 29.85 1011 10 16.0934 N/A
12:35 pm 12:35 Sunny 83 28.3 67 19.6 59 59 SSE 10 17 29.85 1011 10 16.0934 N/A
12:55 pm 12:55 Sunny 83 28.5 66 19.1 57 57 SE 7 11 29.83 1010 10 16.0934 0 0
1:15 pm 13:15 Sunny 84 29.1 66 19.1 55 55 SE 14 22 29.83 1010 10 16.0934 N/A
1:35 pm 13:35 Sunny 85 29.2 68 20 58 58 SSE 13 20 29.83 1010 10 16.0934 N/A
1:55 pm 13:55 Sunny 85 29.6 69 20.3 57 57 SSE 6 9 29.83 1010 10 16.0934 N/A
2:15 pm 14:15 Sunny 85 29.3 67 19.7 56 56 SSE 8 13 29.83 1010 10 16.0934 N/A
2:35 pm 14:35 Sunny 85 29.3 69 20.3 58 58 ESE 9 15 29.83 1010 10 16.0934 N/A
2:55 pm 14:55 Sunny 85 29.5 70 21.1 61 61 SE 12 19 29.83 1010 10 16.0934 N/A
3:15 pm 15:15 Sunny 85 29.5 70 21.1 61 61 SE 13 20 29.83 1010 10 16.0934 N/A
3:35 pm 15:35 Sunny 84 29.1 69 20.8 61 61 ESE 13 20 29.83 1010 10 16.0934 N/A
3:55 pm 15:55 Sunny 84 29.1 70 21.1 62 62 ESE 12 19 29.8 1009 10 16.0934 N/A
4:15 pm 16:15 Sunny 84 29.1 70 21.1 62 62 ESE 13 20 29.8 1009 10 16.0934 N/A
4:35 pm 16:35 Sunny 85 29.5 70 20.9 60 60 S 10 17 29.77 1008 10 16.0934 N/A
4:55 pm 16:55 Sunny 84 29.1 70 21.1 62 62 SSE 10 17 29.8 1009 10 16.0934 N/A
5:15 pm 17:15 Sunny 84 29.1 70 21 62 62 SE 9 15 29.8 1009 10 16.0934 N/A
5:35 pm 17:35 Sunny 84 29.1 70 21.2 62 62 SSE 10 17 29.8 1009 10 16.0934 N/A
5:55 pm 17:55 Sunny 85 29.4 71 21.5 63 63 SE 8 13 29.8 1009 10 16.0934 N/A
6:15 pm 18:15 Sunny 83 28.2 71 21.4 67 67 ESE 9 15 29.8 1009 10 16.0934 N/A
6:35 pm 18:35 Sunny 82 27.7 71 21.5 69 69 SE 6 9 29.8 1009 10 16.0934 N/A
6:55 pm 18:55 Sunny 81 27.4 71 21.6 71 71 SE 7 11 29.8 1009 10 16.0934 N/A
7:15 pm 19:15 Sunny 81 27 71 21.6 72 72 SE 7 11 29.8 1009 10 16.0934 N/A
7:35 pm 19:35 Sunny 80 26.7 71 21.5 73 73 SSE 8 13 29.8 1009 10 16.0934 N/A
7:55 pm 19:55 Sunny 82 27.5 72 22 72 72 SSE 9 15 29.77 1008 10 16.0934 N/A
8:15 pm 20:15 Sunny 81 27.1 71 21.7 72 72 SE 9 15 29.8 1009 10 16.0934 N/A
8:35 pm 20:35 Sunny 80 26.7 71 21.8 75 75 SE 8 13 29.8 1009 10 16.0934 N/A
8:55 pm 20:55 Sunny 79 26 71 21.8 78 78 SE 8 13 29.83 1010 10 16.0934 N/A
9:15 pm 21:15 Clear 77 25.2 72 22 82 82 SE 5 7 29.83 1010 10 16.0934 N/A
9:35 pm 21:35 Clear 77 25 72 22 83 83 SE 6 9 29.83 1010 10 16.0934 N/A
9:55 pm 21:55 Clear 76 24.3 72 22 87 87 SSE 7 11 29.83 1010 10 16.0934 N/A
10:15 pm 22:15 Clear 75 24.1 71 21.8 87 87 SE 5 7 29.83 1010 10 16.0934 N/A
10:35 pm 22:35 Clear 75 24 71 21.7 87 87 SSE 8 13 29.8 1009 10 16.0934 N/A
10:55 pm 22:55 Clear 74 23.3 71 21.6 90 90 SSE 3 6 29.83 1010 10 16.0934 N/A
11:15 pm 23:15 Clear 74 23.2 71 21.6 91 91 SE 3 6 29.83 1010 10 16.0934 N/A
11:35 pm 23:35 Clear 73 23 71 21.5 91 91 Calm 29.8 1009 10 16.0934 N/A
11:55 pm 23:55 Clear 73 22.5 70 21.1 92 92 SE 5 7 29.8 1009 7 11.26538 N/A

Powered by AerisWeather